[Date Prev][Date Next][Thread Prev][Thread Next] - [Date Index][Thread Index][Author Index]
2 Line ISS Keps 12-8
- Subject: [sarex] 2 Line ISS Keps 12-8
- From: "Dave Larsen PhD" <doc@xxxxxxxxxxx>
- Date: Sat, 8 Dec 2001 04:14:43 -0800
ISS
1 25544U 98067A 01342.15947503 .00064801 00000-0 68071-3 0 8098
2 25544 51.6398 293.3644 0009993 71.4948 50.8649 15.63663499174239
----
Via the sarex mailing list at AMSAT.ORG courtesy of AMSAT-NA.
To unsubscribe, send "unsubscribe sarex" to Majordomo@amsat.org
AMSAT Home